Location: Sungai Jaoh
(2.9167°N, 113.9167°E)
Time: 06:36:22
(UTC+00:00)

Meteor 1-31 Rocket - Pass Details

Date: 30 November 2020
Orbit: 520 x 546 km, 97.6° (Epoch: 25 January)

Event Time Altitude Azimuth Distance (km) Brightness Sun altitude
Exits shadow 21:32:25 - 344° (NNW) 2,394 5.7 -10.6°
Reaches altitude 10° 21:34:18 10° 329° (NNW) 1,749 4.9 -10.1°
Maximum altitude 21:37:03 20° 282° (WNW) 1,257 4.0 -9.5°
Drops below altitude 10° 21:39:49 10° 235° (SW) 1,750 5.1 -8.9°
Sets 21:42:21 0° 217° (SW) 2,640 6.1 -8.3°
